THOR ABLESTAR DEB, 644

Orbit data source: Space-Track

THOR ABLESTAR DEB, 644 is space debris in LEO originally from a launch on Thu, 29 Jun 1961 UTC launched from the Air Force Eastern Test Range (AFETR). Debris objects in space refer to the collection of defunct objects orbiting the Earth. Examples of debris include non-operational satellites, rocket bodies, and fragments generated from explosions, collisions, or faulty payload assembly.

Loading next visibility...
Identifier
644, 1961-015GV
Orbit
LEO
Last TLE update
12 hours ago
Origin
Manufacturer
Unknown
Mission
Spacecraft
Bus & Motor
Unknown
Mass
Unknown
Launch date (UTC)
1961-06-29 (64 years ago)
Launch vehicle
Unknown
Launch site
Air Force Eastern Test Range (AFETR)
Object type
Payload
Rocket body
Debris
Shape & HBR
Unknown
Radar Cross Section
Small (<0.1 m²)

Expand to show TLE details & history

TLE from 12 hours ago
0 THOR ABLESTAR DEB
1 00644U 61015GV  25189.85482771  .00000386  00000-0  56305-3 0  9993
2 00644  67.0997   3.8624 0141136 357.7358 107.7526 13.60821876151019
Epoch: 2025-07-08T20:30Z
TLE epoch observation values (Epoch: 2025-07-08T20:30:57.114Z)
Latitude
61.85462°
Longitude
-102.69276°
Altitude
1,075.712 km
Speed
7.304 km/s
True Right ascension
08h 48m 21s
True Declination
61° 43' 03"
Sunlit
Object was in daylight at epoch
Visualization orbit readout
Latitude
-28.48604°
Longitude
114.78405°
Altitude
950.079 km
Speed
7.422 km/s
Apparent Right ascension
02h 35m 37s
Apparent Declination
-59° 11' 37"
Sunlit
Object is in full shadow
Visualization observer readout
Local Sidereal Time
20:21:31
Azimuth
141.323° SSE
Elevation
-35.119°
Doppler factor
1
Orbital elements
Apogee altitude
1,135.66 km
Perigee altitude
926.519 km
Semi-major axis
7,409.226 km
Eccentricity
0.01411
Inclination
67.0997°
RAAN
3.8624°
Arg. of periapsis
357.7358°
True anomaly
Unknown
Mean anomaly
107.7526°
Eccentric anomaly
Unknown
Mean motion
3.40317 °/min
Orbital period
105.78 mins
BSTAR
0.00056305
Loading maneuver chart data...
Loading SW <> Apogee altitude chart data...

THOR ABLESTAR DEB Visibility forecast

Observer location: undefined°, undefined°

Span
Click to sort rows by Start time (UTC) header in descending order
Start Az.
Max El. time (UTC)
Max El. Az.
Max El.
End time (UTC)
End Az.
9 mins2025-07-09 11:58:54.450Z154.717° SSE2025-07-09 12:03:54.450Z99.465° ESE21.458°2025-07-09 12:07:54.450Z57.429° ENE
11 mins2025-07-09 13:46:54.450Z228.549° WSW2025-07-09 13:51:54.450Z308.051° NW39.555°2025-07-09 13:57:54.450Z20.954° NNE
11 mins2025-07-09 21:13:54.450Z352.613° N2025-07-09 21:18:54.450Z49.908° ENE28.86°2025-07-09 21:24:54.450Z111.594° ESE
11 mins2025-07-09 23:02:54.450Z317.101° NNW2025-07-09 23:07:54.450Z250.234° W38.292°2025-07-09 23:13:54.450Z176.856° S
|